#timestamp,LO_Frequency,Hit,StdDev 
1651446015.1,286047000.3,N
1651446035.9,286046999.7,N
1651446055.7,286047001.4,N
1651446075.5,286047003.7,N
1651446095.4,286047003.2,N
1651446115.2,286047003.2,N
1651446135.0,286047003.9,N
1651446136.0,286047003.9,N
1651446155.8,286047003.8,N
1651446175.6,286047004.4,N
1651446195.5,286047002.2,N
1651446215.3,286047003.5,N
1651446235.1,286047003.0,N
1651446255.9,286047003.1,N
1651446275.7,286047004.1,N
1651446295.6,286047004.4,N
1651446315.4,286047001.8,N
1651446335.2,286046999.8,N
1651446355.1,286047002.7,N
1651446356.0,286047002.7,N
1651446375.8,286047000.4,N
1651446395.7,286047000.0,N
1651446415.5,286047000.4,N
1651446435.3,286046999.7,N
1651446455.2,286047001.4,N
1651446475.0,286047001.9,N
1651446475.9,286047001.9,N
1651446495.8,286047002.8,N
1651446515.6,286047001.6,N
1651446535.4,286047001.8,N
1651446555.3,286047002.1,N
1651446575.1,286047001.7,N
1651446595.9,286047001.4,N
1651446615.7,286047001.3,N
1651446635.5,286047001.9,N
1651446655.4,286047001.9,N
1651446675.2,286047002.0,N
1651446695.0,286047002.6,N
1651446695.9,286047002.6,N
1651446715.8,286047004.2,Y
1651446735.6,286047000.9,P
1651446755.5,286046998.3,P
1651446775.3,286047001.1,N
1651446795.1,286046998.2,N
1651446815.9,286046998.1,N
1651446835.7,286047000.6,N
1651446855.6,286047000.4,N
1651446875.4,286046999.7,N
1651446895.2,286046999.8,N
1651446915.1,286047000.5,N
1651446916.0,286047000.5,N
1651446935.8,286047000.6,N
1651446955.6,286046998.2,N
1651446975.5,286047000.0,N
1651446995.3,286047000.6,N
1651447015.2,286046998.9,N
1651447035.9,286046999.4,N
1651447055.7,286046997.2,N
1651447075.6,286046997.1,N
1651447095.4,286046997.7,N
1651447115.2,286046995.0,Y
1651447135.1,286046996.8,P
1651447136.0,286046996.8,N
1651447155.8,286046996.6,N
1651447175.7,286046995.7,Y
1651447195.5,286046997.1,P
1651447215.3,286046996.6,P
1651447235.2,286047000.5,N
1651447255.0,286047001.1,N
1651447255.9,286047001.1,N
1651447275.8,286047000.7,N
1651447295.6,286046998.5,N
1651447315.4,286046997.8,N
1651447335.3,286046998.0,N
1651447355.1,286046997.8,N
1651447375.8,286046997.7,N
1651447395.7,286046999.5,N
1651447415.5,286046998.6,N
1651447435.4,286046998.8,N
1651447455.2,286047001.2,N
1651447475.0,286046998.2,N
1651447475.9,286046998.2,N
1651447495.8,286046998.6,N
1651447515.6,286046998.5,N
1651447535.5,286046996.8,N
1651447555.3,286046997.4,N
1651447575.1,286046997.0,N
1651447595.9,286046997.8,N
1651447615.7,286046997.8,N
1651447635.5,286046997.3,N
1651447655.4,286046996.7,N
1651447675.2,286046997.0,N
1651447695.0,286046997.3,N
1651447696.0,286046997.3,N
1651447715.8,286046997.4,N
1651447735.6,286046996.7,N
1651447755.5,286046995.3,Y
1651447775.3,286046997.1,P
1651447795.1,286046997.1,P
1651447815.9,286046997.8,P
1651447835.7,286046995.0,Y
1651447855.6,286046998.4,P
1651447875.4,286046996.5,P
1651447895.2,286046999.1,N
1651447915.1,286047000.7,N
1651447916.0,286047000.7,N
1651447935.8,286046998.9,N
1651447955.7,286046999.1,N
1651447975.5,286046996.9,N
1651447995.3,286046998.2,N
1651448015.2,286046999.1,N
1651448035.0,286046998.4,N
1651448035.9,286046998.4,N
1651448055.8,286046999.4,N
1651448075.6,286047000.8,N
1651448095.4,286047001.0,N
1651448115.3,286046996.8,N
1651448135.1,286046996.8,N
1651448185.9,286046996.7,E
1651448195.8,286046997.0,N
1651448215.6,286047001.0,P
1651448235.5,286047000.5,N
1651448255.3,286047001.1,N
1651448275.1,286047001.1,N
1651448295.9,286047000.6,N
1651448315.7,286046998.1,N
1651448335.6,286047000.4,N
1651448355.4,286046998.7,N
1651448375.2,286047001.2,N
1651448395.1,286047001.2,N
1651448396.0,286047001.2,N
1651448415.8,286046998.5,N
1651448435.6,286046998.3,N
1651448455.5,286046998.3,N
1651448475.3,286046998.5,N
1651448495.2,286047001.2,N
1651448515.9,286047000.8,N
1651448535.7,286047000.4,N
1651448555.6,286047000.3,N
1651448575.4,286047000.7,N
1651448595.2,286047001.0,N
1651448615.1,286046998.6,N
1651448616.0,286046998.6,N
1651448635.8,286046998.1,N
1651448655.7,286046998.6,N
1651448675.5,286046998.5,N
1651448695.3,286046996.6,N
1651448715.2,286046996.9,N
1651448735.0,286046997.8,N
1651448735.9,286046997.8,N
1651448755.7,286046996.9,N
1651448775.6,286046998.6,N
1651448795.4,286046998.2,N
1651448815.3,286046999.2,N
1651448835.1,286046998.8,N
1651448836.0,286046998.8,N
1651448855.8,286046998.5,N
1651448875.7,286047001.1,N
1651448895.5,286046999.3,N
1651448915.3,286046998.5,N
1651448935.2,286046996.6,N
1651448955.0,286046996.5,N
1651448955.9,286046996.5,N
1651448975.8,286046999.3,N
1651448995.6,286046999.4,N
1651449015.4,286046999.3,N
1651449035.3,286046996.7,N
1651449055.1,286046998.8,N
1651449075.8,286046997.0,N
1651449095.7,286046997.6,N
1651449115.5,286046996.8,N
1651449135.4,286046999.5,N
1651449155.2,286046996.6,Y
1651449175.0,286046999.0,P
1651449175.9,286046999.0,N
1651449195.8,286046998.5,P
1651449215.6,286046998.8,Y
1651449235.5,286047000.0,P
1651449255.3,286046998.3,N
1651449275.1,286047000.4,N
1651449295.9,286047000.8,N
1651449315.7,286047000.8,N
1651449335.5,286047000.7,N
1651449355.4,286047000.3,N
1651449375.3,286047001.0,N
1651449395.1,286046999.9,N
1651449396.0,286046999.9,N
1651449415.8,286047000.1,N
1651449435.7,286047000.3,N
1651449455.5,286047001.0,N
1651449475.3,286047000.0,N
1651449495.2,286047000.2,N
1651449515.0,286047002.7,Y
1651449515.9,286047002.7,P
1651449535.8,286047001.0,N
1651449555.6,286047000.6,N
1651449575.4,286046999.9,N
1651449595.3,286047000.9,N
